User: anonymous   Login
Location: Ostrava
(49.8330°N, 18.2830°E)
Time: 10:44:19
(UTC+02:00)
Language:

Cosmos 1263 Rocket - Orbit

View from above orbital plane
View from above orbital plane
View from above satellite
View from above satellite

Ground track
Ground track

The orbit data is extracted from the following two-line orbital elements,

1 12389U 81033B   14297.44868984  .00060194  00000-0  74636-3 0  1285
2 12389 082.8708 342.2441 0178361 007.7238 089.8429 15.43021008729586
Epoch (UTC): 24 October 2014 10:46:06
Eccentricity: 0.0178361
inclination: 82.8708°
perigee height: 315 km
apogee height: 559 km
right ascension of ascending node: 342.2441°
argument of perigee: 7.7238°
revolutions per day: 15.43021008
mean anomaly at epoch: 89.8429°
orbit number at epoch: 72958

The dashed part of the orbit path shows where the satellite is in the earth's shadow,  

DLR